Location: Delettes
(50.6178°N, 2.2123°E)
Time: 15:41:30
(UTC+00:00)

STARLINK-1046 - Pass Details

Date: 27 February 2020
Orbit: 549 x 550 km, 53.0° (Epoch: 08 April)

Event Time Altitude Azimuth Distance (km) Brightness Sun altitude
Rises 20:03:50 0° 255° (WSW) 2,715 8.0 -25.2°
Reaches altitude 10° 20:06:04 10° 257° (WSW) 1,823 7.0 -25.5°
Enters shadow 20:09:18 53° 269° (W) 682 4.3 -26.0°
